FLOCK 2B-8

Last updated on Sun May 22 2016 09:41:04 GMT+0000 (Coordinated Universal Time)

1 40957U 98067HJ 16143.19605651 .17522001 12488-4 10180-2 0 9990 2 40957 51.6383 158.4347 0002841 328.0391 32.7370 16.41779055 35933

Satellite not in orbit